Tracking 20376 objects as of 22-Feb-2020
HD Live streaming from Space Station
objects crossing your sky now
Track the group of recently launched Starlink satellites

STARLINK-1146

Track STARLINK-1146 now!
10-day predictions
STARLINK-1146 is classified as:


NORAD ID: 45094
Int'l Code: 2020-006BC
Perigee: 355.2 km
Apogee: 358.9 km
Inclination: 53.0 °
Period: 91.5 minutes
Semi major axis: 6728 km
RCS: Unknown
Launch date: January 29, 2020
Source: United States (US)
Launch site: AIR FORCE EASTERN TEST RANGE (AFETR)
aabbcc
Your satellite tracking list
Your tracking list is empty




NASA's NSSDC Master Catalog

Two Line Element Set (TLE):
1 45094U 20006BC  20052.91667824 +.00258336 +00000-0 +17931-2 0  9992
2 45094 052.9971 119.5154 0002759 320.6301 182.1259 15.73140341001773
Source of the keplerian elements: AFSPC